Torna al catalogo

BEIDOU 3M20

AttivoNavigazioneMEO
NORAD 44865·PAYLOAD·🇨🇳 China

Lanciato Dec 16, 2019 da Xichang Satellite Launch Center

Loading…

Prossimi Passaggi (prossime 24 ore)

TLE

AggiornatoSource: Space-Track

Epoca: Sep 14, 2026, 11:31 UTC

1 44865U 19090B   26257.48011734 -.00000048  00000-0  00000-0 0  9999
2 44865  56.6432  59.8780 0013041 307.6731  62.0742  1.86231621 45884

Traccia BEIDOU 3M20 in tempo reale con AllMySat

Download on the App Store